Regional Weather Roundup
Issued by NWS

Home | Current Version | Previous Version | Text Only | Print | Product List | Glossary On
Versions: 1 2 3 4 5 6 7 8 9 10 11 12 13 14 15 16 17 18 19 20 21 22 23 24 25 26 27 28 29 30 31 32 33 34 35 36 37 38 39 40 41 42 43 44 45 46 47 48 49 50
000
ASUS43 KLSX 041259
RWRMO

WEATHER SUMMARY FOR MISSOURI
NATIONAL WEATHER SERVICE SPRINGFIELD MO
700 AM CST WED MAR 04 2015

NOTE: "FAIR" INDICATES FEW OR NO CLOUDS BELOW 12,000 FEET WITH NO
       SIGNIFICANT WEATHER AND/OR OBSTRUCTIONS TO VISIBILITY.
       CURRENT SKY AND/OR WEATHER CONDITIONS ARE NOT AVAILABLE FOR
       CHILLICOTHE AND FARMINGTON.

MOZ001>031-035>038-043-044-053-054-041400-
...NORTHERN AND WESTERN MISSOURI...

CITY           SKY/WX    TMP DP  RH WIND       PRES   REMARKS
KANSAS CTY INT FLURRIES  19   9  65 N16G24    30.22R WCI   4
KANSAS C DTWN  MOCLDY    21   6  52 N10       30.23S WCI  10
LEE`S SUMMIT   CLOUDY    20   7  57 N14       30.21R WCI   7
ST JOSEPH      CLOUDY    18   9  68 N13       30.27R WCI   5
CHILLICOTHE      N/A     20   7  57 N9        30.25R WCI   9

$$
MOZ066>068-077>081-088>096-101>105-041400-
...SOUTHWEST MISSOURI...

CITY           SKY/WX    TMP DP  RH WIND       PRES   REMARKS
SPRINGFIELD    FRZ RAIN  29  25  85 N21       30.08R WCI  16
JOPLIN         LGT SNOW  27  22  81 N14G25    30.12R WCI  16

$$
MOZ032>034-039>042-045>050-055>058-069>072-041400-
...CENTRAL MISSOURI...

CITY           SKY/WX    TMP DP  RH WIND       PRES   REMARKS
COLUMBIA       LGT SNOW  20  16  84 N18       30.16R VSB 3/4 WCI   5
JEFFERSON CITY CLOUDY    24  12  60 N16G24    30.17R WCI  11
ROLLA          CLOUDY    25  16  68 N16       30.08R WCI  12
SEDALIA        LGT SNOW  20  14  77 N20       30.18S WCI   4
OSAGE BEACH    CLOUDY    28  19  69 NW8G16    30.12R WCI  20

$$
MOZ051-052-059>065-041400-
...EAST CENTRAL MISSOURI...

CITY           SKY/WX    TMP DP  RH WIND       PRES   REMARKS
ST LOUIS INTL  MOCLDY    26  14  60 N13G24    30.13R WCI  15
SPIRIT OF STL  CLOUDY    24  14  65 NW16      30.14R WCI  11
ST CHARLES     CLOUDY    22  11  62 N15G25    30.15R WCI   9

$$
MOZ072>076-082>087-097>100-106>115-041400-
...SOUTH CENTRAL AND SOUTHEAST MISSOURI...

CITY           SKY/WX    TMP DP  RH WIND       PRES   REMARKS
CAPE GIRARDEAU LGT RAIN  35  33  92 N12       30.01S WCI  27
FARMINGTON     CLOUDY    32  30  93 N10       30.05R WCI  24
POPLAR BLUFF   RAIN      36  31  82 N17       29.99R WCI  26
WEST PLAINS    LGT RAIN  33  30  88 N10       30.00S FOG     WCI  25

$$



USA.gov is the U.S. government's official web portal to all federal, state and local government web resources and services.